Probability
0 0 0 0 0 0 1 1 1 0 1 0 0 0 0 1 3 5 7 10 13 14 12 9 5 4 6 7 7 5 4 3 2 2 3 2 1 0 0 1 0 0 0
1 0 0 0 0 0 1 1 0 0 1 0 0 0 0 2 4 4 5 7 10 12 11 8 5 4 5 6 6 6 4 2 3 3 3 2 1 1 1 2 1 0 0
1 1 1 1 0 1 1 0 0 0 0 0 0 1 2 4 4 4 4 5 6 8 9 8 6 5 5 5 6 6 4 3 3 3 3 3 3 2 2 2 2 1 1
1 1 1 1 2 1 0 0 0 0 0 1 1 3 5 6 5 4 5 5 5 5 7 8 7 7 6 6 6 6 5 5 5 6 5 4 4 4 3 2 2 2 2
1 1 2 2 3 1 0 0 1 1 1 2 2 4 7 8 7 6 6 6 6 6 6 7 7 7 7 8 8 8 7 7 8 8 7 6 5 5 4 3 2 1 1
3 4 4 3 3 2 2 2 2 2 3 3 2 3 6 7 8 8 8 7 7 6 5 6 7 7 8 10 11 11 10 9 8 7 6 6 4 4 4 3 3 1 0
5 6 5 4 3 3 3 3 4 4 3 3 3 3 4 6 7 7 6 6 6 6 5 6 7 7 8 10 12 12 12 10 7 6 7 7 5 3 3 3 3 2 1
6 6 6 5 4 3 4 4 5 5 4 4 4 4 4 5 6 5 4 5 5 6 7 8 8 8 8 8 9 9 10 10 8 7 9 9 7 4 2 2 2 1 1
7 7 6 6 5 4 4 5 5 6 6 6 5 5 5 5 4 3 3 4 5 6 7 7 9 10 9 7 6 5 8 10 10 9 9 9 8 5 3 3 3 2 1
8 6 6 5 5 5 5 5 6 6 6 6 6 5 5 4 3 2 3 3 5 5 4 6 10 11 10 9 7 6 7 10 11 10 8 7 5 4 4 5 5 4 4
7 5 4 5 5 5 4 4 6 7 6 6 6 5 5 5 3 2 3 3 3 3 4 8 11 12 11 10 9 8 6 7 8 9 8 5 3 2 3 4 5 5 5
5 4 4 5 6 5 5 4 5 7 6 5 4 5 6 6 4 3 3 4 3 3 6 9 12 13 12 11 10 8 6 5 6 7 7 5 3 1 1 3 4 4 5
7 7 7 6 6 6 5 5 5 6 5 4 3 4 5 6 5 4 4 3 3 4 6 8 9 12 14 14 12 9 7 5 5 6 6 6 4 2 2 2 2 4 4
10 10 10 8 6 5 4 5 5 5 4 4 4 4 4 5 6 6 5 3 2 3 6 6 6 8 12 14 12 10 8 4 2 4 5 4 4 3 2 1 1 2 2
12 12 11 10 7 5 4 5 5 4 4 4 5 6 6 6 6 6 5 4 2 2 4 6 6 6 8 11 11 11 11 6 1 1 2 2 2 3 3 2 1 0 0
14 13 12 11 9 7 6 6 6 6 5 5 6 7 8 8 7 6 6 4 3 3 4 6 7 8 9 12 13 14 13 7 2 0 0 0 1 1 2 1 0 0 0
15 14 12 12 11 10 8 8 7 6 5 5 6 7 9 8 7 7 7 6 6 4 4 4 6 10 15 18 18 16 12 8 3 1 0 0 0 0 0 0 0 0 0
16 14 12 12 12 11 10 8 7 6 6 7 7 8 8 7 6 7 7 8 7 5 4 4 6 12 18 22 20 16 12 9 5 2 0 0 0 0 0 0 0 0 0
19 17 14 12 12 11 11 9 7 8 9 9 9 9 9 8 8 8 7 8 8 6 5 5 6 11 16 20 20 17 14 12 8 4 1 0 0 0 0 0 0 0 0
21 20 17 15 14 13 12 11 11 11 12 11 10 9 9 10 11 10 7 7 8 7 6 6 6 9 13 18 20 18 17 15 11 6 3 1 0 0 0 0 0 0 0
21 21 21 19 18 15 13 13 13 13 13 12 10 10 9 10 11 8 6 5 5 5 6 7 7 7 11 16 18 18 18 17 14 10 7 4 2 1 1 0 0 0 0
20 21 21 21 19 14 11 11 11 12 13 12 11 11 10 9 8 6 4 3 3 3 4 6 7 7 9 11 14 14 16 17 15 12 10 7 5 4 2 1 0 0 0
20 21 22 22 19 13 9 8 8 10 12 12 11 11 10 8 6 5 4 4 4 3 3 4 5 6 6 8 10 11 12 13 14 14 12 9 8 5 3 1 0 0 0
23 23 23 22 18 12 8 6 5 9 12 12 11 12 12 10 6 4 5 6 6 5 4 4 4 5 5 6 7 8 9 10 11 13 13 12 9 6 4 3 1 0 0
25 24 22 21 17 11 7 5 5 9 11 10 11 12 13 12 7 4 5 7 7 6 6 5 4 4 4 4 5 6 7 9 10 11 12 12 10 7 6 6 3 1 0
25 22 19 18 16 11 6 5 6 9 9 9 10 11 12 11 7 4 6 7 7 6 6 5 4 3 3 3 3 4 5 8 9 11 11 10 9 8 8 7 4 1 0
Wind_Speed
3 3 2 2 1 1 1 1 1 1 2 3 3 3 5 5 5 5 5 10 11 11 10 10 9 8 8 7 7 7 7 7 6 6 6 6 5 5 7 8 7 7 8
3 3 2 2 2 2 2 1 1 1 2 3 3 4 4 3 4 5 5 7 10 10 9 9 8 8 8 8 7 7 7 7 7 6 6 6 6 6 6 7 7 7 8
3 2 2 2 2 2 2 2 2 2 3 3 4 3 3 3 3 4 5 5 6 8 9 8 7 7 8 8 8 8 7 7 6 6 6 6 6 6 6 6 6 7 7
3 2 2 3 3 2 3 3 3 3 3 3 3 3 3 2 3 3 4 5 4 5 7 9 8 7 8 8 8 8 8 7 7 7 7 7 6 6 6 6 6 6 7
3 2 2 2 2 3 3 3 4 3 3 3 3 2 2 2 2 2 3 4 5 5 5 7 9 8 8 8 7 7 7 7 6 6 7 6 6 6 5 5 6 6 6
4 3 3 3 3 3 3 3 4 3 2 2 3 3 2 1 1 2 2 2 4 5 6 6 5 6 8 7 6 6 6 6 6 6 6 6 6 5 5 5 5 6 6
4 3 3 3 3 3 2 2 2 2 1 2 2 2 1 2 2 2 1 1 2 3 5 5 4 4 4 6 5 5 6 6 6 6 6 5 5 5 5 6 5 6 6
3 3 4 2 3 2 2 2 1 1 1 1 1 1 1 1 1 1 1 1 2 2 4 5 4 4 3 3 5 6 5 6 6 6 6 6 5 5 5 5 6 6 6
3 3 3 3 2 2 2 2 2 2 1 1 0 0 1 1 1 1 1 1 1 1 2 3 4 4 4 3 3 5 6 5 6 6 6 6 6 5 5 5 5 5 5
3 3 3 3 2 2 2 2 2 2 1 1 1 0 0 1 1 0 1 1 1 1 1 2 3 3 3 4 4 5 5 5 5 5 6 6 6 5 5 5 5 5 5
3 3 3 2 2 2 2 3 3 2 2 2 1 1 1 0 1 1 1 0 0 0 1 2 3 3 3 3 3 5 5 5 4 5 4 5 6 6 5 5 5 5 5
3 3 3 2 2 2 2 2 2 2 2 3 2 2 1 1 1 0 1 1 1 0 0 1 2 2 3 3 3 7 6 5 4 4 4 4 4 5 4 4 5 5 5
2 2 3 2 2 2 1 2 2 2 2 2 2 2 2 1 1 0 1 1 0 1 0 1 1 2 2 3 3 7 7 6 5 4 4 4 4 4 4 3 3 4 4
2 3 2 2 2 2 2 2 2 1 1 2 2 2 2 2 1 1 0 1 0 0 0 0 1 1 1 3 4 6 4 6 6 5 5 4 4 3 3 3 3 3 3
2 3 2 2 1 1 2 2 2 2 2 2 2 2 2 2 2 2 1 0 1 1 1 1 1 1 1 2 4 3 3 5 6 6 6 5 5 4 4 3 3 2 2
3 2 2 1 1 1 1 1 2 2 2 2 2 2 2 3 2 2 2 2 1 0 1 0 0 1 1 1 4 3 3 6 7 7 7 6 5 5 5 4 4 3 3
2 1 1 1 1 1 1 1 2 1 2 2 3 2 2 3 3 2 2 2 2 1 0 1 0 0 1 0 2 2 3 3 4 7 8 7 7 6 5 5 4 4 3
1 1 1 1 1 1 1 1 2 2 2 2 2 3 3 2 3 3 2 2 2 1 0 1 1 1 1 1 2 2 2 3 3 6 9 8 7 7 6 6 5 5 4
1 0 1 1 2 2 1 1 2 2 1 2 2 2 2 3 3 3 3 2 2 2 1 1 2 1 1 1 1 2 2 1 3 5 8 8 8 8 7 7 6 6 5
1 0 1 1 1 2 2 2 2 2 1 1 2 1 1 2 2 2 2 2 2 2 1 1 1 1 1 1 0 1 1 1 2 2 4 6 7 9 8 8 8 7 7
1 1 0 1 1 1 2 2 2 2 1 1 1 1 1 1 1 2 2 2 3 2 2 1 1 1 1 1 1 2 2 2 2 2 2 3 4 4 6 7 9 9 8
0 0 0 1 1 2 5 5 3 2 1 1 2 2 1 1 2 1 1 2 2 2 3 2 2 2 2 2 2 2 1 1 1 1 1 2 4 4 4 4 8 11 10
1 0 1 1 2 3 5 5 5 3 2 1 1 2 2 2 2 2 2 2 2 2 3 2 3 3 3 2 2 3 2 2 2 2 2 3 2 3 3 4 9 11 11
0 1 1 1 2 2 4 5 6 3 2 2 1 1 0 1 2 2 2 2 2 2 2 2 2 3 3 3 3 3 3 3 3 3 2 2 2 2 2 3 9 10 11
1 1 1 1 2 1 4 5 6 3 1 2 1 1 1 0 1 3 2 2 3 3 3 3 3 3 4 5 4 2 3 2 3 2 1 2 2 1 2 2 5 10 10
1 1 1 1 1 1 2 4 5 2 2 2 0 1 2 2 2 1 1 2 3 4 4 4 4 5 5 6 6 4 3 3 3 2 1 1 2 1 1 1 3 4 5
Wind_Direction
66 62 61 54 36 59 69 45 70 75 79 78 86 88 92 106 121 124 128 140 145 149 151 155 161 167 167 167 172 172 172 174 173 171 177 179 179 177 185 183 180 184 186
73 71 68 50 28 35 36 34 64 100 104 90 82 72 79 91 115 127 133 141 147 149 151 155 163 168 170 173 174 172 174 177 177 179 181 180 178 179 181 176 179 186 191
70 70 63 52 37 31 49 46 53 76 94 93 96 87 81 89 103 128 138 143 146 149 153 156 162 166 169 172 174 175 176 178 178 176 174 173 173 175 179 178 179 185 190
65 60 64 59 37 33 39 45 43 59 72 84 89 92 94 100 121 133 139 143 147 150 154 159 158 159 165 170 172 175 178 180 175 168 164 165 167 168 171 175 178 182 184
60 52 54 60 50 46 36 42 53 48 59 70 89 96 97 107 116 125 125 144 143 142 149 159 159 160 162 165 169 173 177 172 166 165 167 170 173 173 174 176 181 184 185
54 46 61 46 51 58 46 38 39 40 45 56 66 73 82 103 98 102 123 124 136 145 150 151 159 165 163 161 165 166 164 158 157 162 169 172 175 176 180 184 188 192 192
55 46 50 46 45 58 65 57 43 43 38 59 75 76 85 106 114 116 112 108 130 138 141 145 155 150 158 159 159 161 165 167 165 168 169 169 170 172 182 185 186 192 195
61 60 52 47 47 48 43 44 42 26 27 49 68 89 69 54 45 110 128 143 131 127 134 143 138 137 143 150 156 161 165 176 176 177 178 176 173 174 175 172 179 186 190
68 59 50 46 40 45 40 36 22 24 9 0 53 73 108 116 47 35 54 82 77 115 143 143 142 145 145 134 143 163 168 174 178 182 185 184 177 172 172 176 177 178 185
82 76 66 51 36 39 39 7 36 354 340 315 300 325 104 121 138 133 346 63 100 136 153 148 132 131 134 130 133 139 153 164 174 178 181 180 178 175 177 184 189 190 188
83 68 63 51 51 47 30 23 16 2 350 345 343 353 1 280 227 163 190 193 358 292 183 132 118 123 132 136 141 141 153 159 168 174 171 178 184 185 189 195 196 196 196
91 75 71 43 39 33 23 15 4 359 358 353 350 345 335 321 297 178 196 183 167 233 133 106 131 146 149 137 133 135 147 149 158 162 160 167 174 175 182 194 201 204 202
88 76 67 52 43 28 20 12 357 348 357 350 340 335 339 320 305 296 135 189 204 219 133 132 154 146 144 135 135 139 147 150 159 164 163 164 169 171 172 182 192 198 199
83 94 83 65 47 16 15 4 341 339 4 333 330 341 324 322 331 339 202 172 208 250 141 169 143 132 118 136 142 150 151 159 162 163 162 163 161 166 169 167 175 183 189
89 91 80 63 43 24 20 3 349 355 348 329 329 337 325 323 340 338 332 311 197 230 246 214 115 126 136 132 145 158 146 165 169 168 170 171 169 168 161 157 156 160 166
54 79 74 51 26 7 4 348 341 344 347 341 330 12 354 330 345 346 341 328 311 257 275 230 188 113 114 130 139 155 160 162 177 176 177 180 180 178 171 167 165 163 161
51 53 41 30 27 3 5 353 327 354 350 339 342 11 356 354 356 348 352 352 352 8 279 289 180 135 138 194 146 167 182 181 177 183 182 182 182 182 178 173 173 172 169
86 55 18 1 341 20 22 359 334 360 352 350 356 1 358 354 356 347 353 358 353 337 278 276 280 223 187 200 182 205 197 183 175 178 181 185 184 186 185 182 181 177 174
121 79 36 4 345 1 14 1 345 343 353 359 350 355 3 0 350 352 353 347 336 333 331 267 276 260 205 208 208 238 227 209 197 174 178 185 188 190 191 191 189 186 182
134 66 20 346 350 9 1 352 346 334 358 357 351 2 6 15 349 334 336 341 337 342 335 315 299 300 279 246 211 244 243 233 227 199 174 179 188 194 195 194 193 193 194
151 124 37 343 341 12 357 357 340 340 350 346 343 343 4 40 36 1 356 352 346 338 322 308 296 304 312 320 276 258 244 238 227 203 171 186 185 194 199 201 198 196 196
125 147 63 39 14 20 14 9 1 337 321 323 327 323 331 38 29 26 11 331 314 309 323 322 308 301 294 295 306 295 295 289 271 237 210 222 191 200 198 193 193 192 194
180 147 93 84 69 32 14 4 354 325 309 317 320 311 313 357 36 5 336 339 339 307 272 283 293 289 291 303 305 299 305 298 273 256 232 242 205 203 196 195 186 187 192
135 141 124 104 92 32 11 354 337 305 292 283 283 290 318 8 7 346 317 325 316 314 282 265 269 281 296 308 297 279 274 274 258 259 231 247 227 218 202 183 185 186 190
111 126 112 96 98 36 8 358 344 289 292 303 290 355 3 66 18 346 313 300 295 290 289 288 274 266 271 281 289 304 292 282 274 265 255 246 242 235 213 186 182 185 189
144 149 110 87 91 69 14 1 347 311 318 309 306 87 56 44 23 351 296 290 285 292 302 295 279 264 257 257 255 246 262 269 271 260 247 252 256 239 252 190 159 174 191